START_TIME,STEP,MOV.,M15,t_acc.,M20,t_acc.
1979-07-13 12:00:44.230 ,0,0,0.,24.0,0.,24.0
1979-07-13 12:01:08.230 ,1,1,0.,24.0,0.,24.0
1979-07-13 12:01:32.230 ,1,0,0.,24.0,0.,24.0
1979-07-13 12:01:56.230 ,2,1,1.,24.0,0.,24.0
1979-07-13 12:02:20.230 ,2,0,0.,24.0,0.,24.0
1979-07-13 12:02:44.230 ,3,1,0.,24.0,0.,24.0
1979-07-13 12:03:08.230 ,3,0,0.,24.0,0.,24.0
1979-07-13 12:03:32.230 ,4,1,0.,24.0,0.,24.0
1979-07-13 12:03:56.230 ,4,0,0.,24.0,0.,24.0
1979-07-13 12:04:20.230 ,5,1,0.,24.0,0.,24.0
1979-07-13 12:04:44.230 ,5,0,0.,24.0,0.,24.0
1979-07-13 12:05:08.230 ,6,1,0.,24.0,0.,24.0
1979-07-13 12:05:32.230 ,6,0,0.,24.0,0.,24.0
1979-07-13 12:05:56.230 ,7,1,0.,24.0,0.,24.0
1979-07-13 12:06:20.230 ,7,0,1.,24.0,0.,24.0
1979-07-13 12:06:44.230 ,7,1,0.,24.0,0.,24.0
1979-07-13 12:07:08.230 ,7,0,0.,24.0,0.,24.0
1979-07-13 12:07:32.230 ,6,1,1.,24.0,0.,24.0
1979-07-13 12:07:56.230 ,6,0,0.,24.0,0.,24.0
1979-07-13 12:08:20.230 ,5,1,0.,24.0,0.,24.0
1979-07-13 12:08:44.230 ,5,0,0.,24.0,0.,24.0
1979-07-13 12:09:08.230 ,4,1,0.,24.0,0.,24.0
1979-07-13 12:09:32.230 ,4,0,0.,24.0,0.,24.0
1979-07-13 12:09:56.230 ,3,1,0.,24.0,0.,24.0
1979-07-13 12:10:20.230 ,3,0,1.,24.0,0.,24.0
1979-07-13 12:10:46.030 ,2,1,0.,24.0,0.,24.0
1979-07-13 12:11:08.230 ,2,0,0.,24.0,0.,24.0
1979-07-13 12:11:32.230 ,1,1,0.,24.0,0.,24.0
1979-07-13 12:11:56.230 ,1,0,0.,24.0,0.,24.0
1979-07-13 12:12:20.230 ,0,1,0.,24.0,0.,24.0
1979-07-13 12:12:44.230 ,0,0,0.,24.0,0.,24.0
1979-07-13 12:13:08.230 ,0,1,0.,24.0,0.,24.0
1979-07-13 12:13:32.230 ,0,0,0.,24.0,0.,24.0
1979-07-13 12:13:56.230 ,1,1,0.,24.0,0.,24.0
1979-07-13 12:14:20.230 ,1,0,0.,24.0,0.,24.0
1979-07-13 12:14:44.230 ,2,1,0.,24.0,0.,24.0
1979-07-13 12:15:08.230 ,0,0,,0,,0
1979-07-13 12:15:32.230 ,3,1,0.,24.0,0.,24.0
1979-07-13 12:15:56.230 ,3,0,0.,24.0,0.,24.0
1979-07-13 12:16:20.230 ,4,1,0.,24.0,0.,24.0
1979-07-13 12:16:44.230 ,4,0,0.,24.0,0.,24.0
1979-07-13 12:17:08.230 ,5,1,0.,24.0,0.,24.0
1979-07-13 12:17:32.230 ,5,0,0.,24.0,0.,24.0
1979-07-13 12:17:56.230 ,6,1,0.,24.0,0.,24.0
1979-07-13 12:18:20.230 ,6,0,0.,24.0,0.,24.0
1979-07-13 12:18:44.230 ,7,0,0.,24.0,0.,24.0
1979-07-13 12:19:08.230 ,7,0,0.,24.0,0.,24.0
1979-07-13 12:19:32.230 ,3,1,0.,24.0,0.,24.0
1979-07-13 12:19:56.230 ,0,1,0.,24.0,0.,24.0
1979-07-13 12:20:20.230 ,4,1,0.,24.0,0.,24.0
1979-07-13 12:20:44.230 ,7,1,0.,24.0,0.,24.0
1979-07-13 12:21:08.230 ,3,1,0.,24.0,0.,24.0
1979-07-13 12:21:32.230 ,0,1,0.,24.0,0.,24.0
1979-07-13 12:21:56.230 ,4,1,0.,24.0,0.,24.0
1979-07-13 12:22:20.230 ,7,1,0.,24.0,0.,24.0
1979-07-13 12:22:44.230 ,3,1,0.,24.0,0.,24.0
1979-07-13 12:23:08.230 ,0,1,0.,24.0,0.,24.0
1979-07-13 12:23:32.230 ,4,1,1.,24.0,0.,24.0
1979-07-13 12:23:56.230 ,7,1,0.,24.0,0.,24.0
1979-07-13 12:24:20.230 ,3,1,0.,24.0,0.,24.0
1979-07-13 12:24:44.230 ,0,1,0.,24.0,0.,24.0
1979-07-13 12:25:08.230 ,4,1,0.,24.0,0.,24.0
1979-07-13 12:25:32.230 ,7,1,0.,24.0,0.,24.0
1979-07-13 12:25:56.230 ,3,1,0.,24.0,0.,24.0
1979-07-13 12:26:20.230 ,0,1,0.,24.0,0.,24.0
1979-07-13 12:26:44.230 ,4,1,0.,24.0,0.,24.0
1979-07-13 12:27:08.230 ,7,1,0.,24.0,0.,24.0
1979-07-13 12:27:32.230 ,3,1,0.,24.0,0.,24.0
1979-07-13 12:27:56.230 ,0,1,0.,24.0,0.,24.0
1979-07-13 12:28:20.230 ,4,1,0.,24.0,0.,24.0
1979-07-13 12:28:44.230 ,7,1,0.,24.0,0.,24.0
1979-07-13 12:29:08.230 ,3,1,0.,24.0,0.,24.0
1979-07-13 12:29:32.230 ,0,1,0.,24.0,0.,24.0
1979-07-13 12:29:56.230 ,0,0,0.,24.0,0.,24.0
1979-07-13 12:30:20.230 ,0,0,0.,24.0,0.,24.0
1979-07-13 12:30:44.230 ,5,1,0.,24.0,0.,24.0
1979-07-13 12:31:08.230 ,5,0,0.,24.0,0.,24.0
1979-07-13 12:31:32.230 ,4,1,0.,24.0,0.,24.0
1979-07-13 12:31:56.230 ,4,0,0.,24.0,0.,24.0
1979-07-13 12:32:20.230 ,3,1,0.,24.0,0.,24.0
1979-07-13 12:32:44.230 ,3,0,0.,24.0,0.,24.0
1979-07-13 12:33:08.230 ,2,1,0.,24.0,0.,24.0
1979-07-13 12:33:32.230 ,2,0,0.,24.0,0.,24.0
1979-07-13 12:33:56.230 ,1,1,0.,24.0,0.,24.0
1979-07-13 12:34:20.230 ,1,0,0.,24.0,0.,24.0
1979-07-13 12:34:44.230 ,0,1,0.,24.0,0.,24.0
1979-07-13 12:35:08.230 ,0,0,0.,24.0,0.,24.0
1979-07-13 12:35:32.230 ,0,1,0.,24.0,0.,24.0
1979-07-13 12:35:56.230 ,0,0,0.,24.0,0.,24.0
1979-07-13 12:36:20.230 ,1,1,0.,24.0,0.,24.0
1979-07-13 12:36:44.230 ,1,0,0.,24.0,0.,24.0
1979-07-13 12:37:08.230 ,2,1,0.,24.0,0.,24.0
1979-07-13 12:37:32.230 ,2,0,0.,24.0,0.,24.0
1979-07-13 12:37:56.230 ,3,1,0.,24.0,0.,24.0
1979-07-13 12:38:20.230 ,3,0,0.,24.0,0.,24.0
1979-07-13 12:38:44.230 ,4,1,0.,24.0,0.,24.0
1979-07-13 12:39:08.230 ,4,0,0.,24.0,0.,24.0
1979-07-13 12:39:32.230 ,5,1,0.,24.0,0.,24.0
1979-07-13 12:39:56.230 ,0,0,0.,24.0,0.,24.0
1979-07-13 12:40:38.830 ,0,0,0.,24.0,0.,24.0
1979-07-13 12:40:44.230 ,0,0,0.,24.0,0.,24.0
1979-07-13 12:41:08.230 ,7,1,0.,24.0,0.,24.0
1979-07-13 12:41:32.230 ,7,0,0.,24.0,0.,24.0
1979-07-13 12:41:56.230 ,7,1,0.,24.0,0.,24.0
1979-07-13 12:42:20.230 ,7,0,0.,24.0,0.,24.0
1979-07-13 12:42:44.230 ,6,1,0.,24.0,0.,24.0
1979-07-13 12:43:08.230 ,6,0,0.,24.0,0.,24.0
1979-07-13 12:43:32.230 ,5,1,0.,24.0,0.,24.0
1979-07-13 12:43:56.230 ,5,0,0.,24.0,0.,24.0
1979-07-13 12:44:20.230 ,4,1,0.,24.0,0.,24.0
1979-07-13 12:44:44.230 ,4,0,0.,24.0,0.,24.0
1979-07-13 12:45:08.230 ,3,1,0.,24.0,0.,24.0
1979-07-13 12:45:32.230 ,3,0,0.,24.0,0.,24.0
1979-07-13 12:45:56.230 ,2,1,0.,24.0,0.,24.0
1979-07-13 12:46:20.230 ,2,0,0.,24.0,0.,24.0
1979-07-13 12:46:44.230 ,1,1,0.,24.0,0.,24.0
1979-07-13 12:47:08.230 ,1,0,1.,24.0,0.,24.0
1979-07-13 12:47:32.230 ,0,1,0.,24.0,0.,24.0
1979-07-13 12:47:56.230 ,0,0,0.,24.0,0.,24.0
1979-07-13 12:48:20.230 ,0,1,0.,24.0,0.,24.0
1979-07-13 12:48:44.230 ,0,0,0.,24.0,0.,24.0
1979-07-13 12:49:08.230 ,1,1,0.,24.0,0.,24.0
1979-07-13 12:49:32.230 ,1,0,0.,24.0,0.,24.0
1979-07-13 12:49:56.230 ,2,1,0.,24.0,0.,24.0
1979-07-13 12:50:20.230 ,2,0,0.,24.0,0.,24.0
1979-07-13 12:50:44.230 ,3,1,0.,24.0,0.,24.0
1979-07-13 12:51:08.230 ,3,0,0.,24.0,0.,24.0
1979-07-13 12:51:32.230 ,4,1,0.,24.0,0.,24.0
1979-07-13 12:51:56.230 ,4,0,0.,24.0,0.,24.0
1979-07-13 12:52:20.230 ,5,1,0.,24.0,0.,24.0
1979-07-13 12:52:44.230 ,5,0,0.,24.0,0.,24.0
1979-07-13 12:53:08.230 ,6,1,0.,24.0,0.,24.0
1979-07-13 12:53:32.230 ,6,0,0.,24.0,0.,24.0
1979-07-13 12:53:56.230 ,7,1,0.,24.0,0.,24.0
1979-07-13 12:54:20.230 ,7,0,0.,24.0,0.,24.0
1979-07-13 12:54:44.230 ,7,1,0.,24.0,0.,24.0
1979-07-13 12:55:08.230 ,7,0,0.,24.0,0.,24.0
1979-07-13 12:55:32.230 ,6,1,0.,24.0,0.,24.0
1979-07-13 12:55:56.230 ,6,0,0.,24.0,0.,24.0
1979-07-13 12:56:20.230 ,5,1,0.,24.0,0.,24.0
1979-07-13 12:56:44.230 ,5,0,0.,24.0,0.,24.0
1979-07-13 12:57:08.230 ,4,1,0.,24.0,0.,24.0
1979-07-13 12:57:32.230 ,4,0,1.,24.0,0.,24.0
1979-07-13 12:57:56.230 ,3,1,1.,24.0,0.,24.0
1979-07-13 12:58:20.230 ,3,0,0.,24.0,0.,24.0
1979-07-13 12:58:44.230 ,2,1,0.,24.0,0.,24.0
1979-07-13 12:59:08.230 ,2,0,0.,24.0,0.,24.0
1979-07-13 12:59:32.230 ,1,1,0.,24.0,0.,24.0
1979-07-13 12:59:56.230 ,1,0,0.,24.0,0.,24.0
1979-07-13 13:00:20.230 ,0,1,0.,24.0,0.,24.0
1979-07-13 13:00:44.230 ,0,0,0.,24.0,0.,24.0
1979-07-13 13:01:08.230 ,0,1,0.,24.0,0.,24.0
1979-07-13 13:01:32.230 ,0,0,0.,24.0,0.,24.0
1979-07-13 13:01:56.230 ,1,1,0.,24.0,0.,24.0
1979-07-13 13:02:20.230 ,0,0,0.,24.0,0.,24.0
1979-07-13 13:03:04.030 ,0,0,0.,24.0,0.,24.0
1979-07-13 13:03:08.230 ,0,0,0.,24.0,0.,24.0
1979-07-13 13:03:32.230 ,3,1,0.,24.0,0.,24.0
1979-07-13 13:03:56.230 ,3,0,0.,24.0,0.,24.0
1979-07-13 13:04:20.230 ,4,1,0.,24.0,0.,24.0
1979-07-13 13:04:44.230 ,4,0,0.,24.0,0.,24.0
1979-07-13 13:05:08.230 ,5,1,0.,24.0,0.,24.0
1979-07-13 13:05:32.230 ,5,0,0.,24.0,0.,24.0
1979-07-13 13:05:56.230 ,6,1,0.,24.0,0.,24.0
1979-07-13 13:06:20.230 ,6,0,0.,24.0,0.,24.0
1979-07-13 13:06:44.230 ,7,0,0.,24.0,0.,24.0
1979-07-13 13:07:08.230 ,7,0,0.,24.0,0.,24.0
1979-07-13 13:07:32.230 ,3,1,0.,24.0,0.,24.0
1979-07-13 13:07:56.230 ,0,1,0.,24.0,0.,24.0
1979-07-13 13:08:20.230 ,4,1,0.,24.0,0.,24.0
1979-07-13 13:08:44.230 ,7,1,0.,24.0,0.,24.0
1979-07-13 13:09:08.230 ,3,1,0.,24.0,0.,24.0
1979-07-13 13:09:32.230 ,0,1,0.,24.0,0.,24.0
1979-07-13 13:09:56.230 ,4,1,0.,24.0,0.,24.0
1979-07-13 13:10:20.230 ,7,1,0.,24.0,0.,24.0
1979-07-13 13:10:44.230 ,3,1,0.,24.0,0.,24.0
1979-07-13 13:11:08.230 ,0,1,0.,24.0,0.,24.0
1979-07-13 13:11:32.230 ,4,1,0.,24.0,0.,24.0
1979-07-13 13:11:56.230 ,7,1,0.,24.0,0.,24.0
1979-07-13 13:12:20.230 ,3,1,0.,24.0,0.,24.0
1979-07-13 13:12:44.230 ,0,1,0.,24.0,0.,24.0
1979-07-13 13:13:08.230 ,4,1,0.,24.0,0.,24.0
1979-07-13 13:13:32.230 ,7,1,0.,24.0,0.,24.0
1979-07-13 13:13:56.230 ,3,1,0.,24.0,0.,24.0
1979-07-13 13:14:20.230 ,0,1,0.,24.0,0.,24.0
1979-07-13 13:14:44.230 ,4,1,1.,24.0,0.,24.0
1979-07-13 13:15:08.230 ,7,1,0.,24.0,0.,24.0
1979-07-13 13:15:32.230 ,3,1,0.,24.0,0.,24.0
1979-07-13 13:15:56.230 ,0,1,0.,24.0,0.,24.0
1979-07-13 13:16:20.230 ,4,1,0.,24.0,0.,24.0
1979-07-13 13:16:44.230 ,7,1,0.,24.0,0.,24.0
1979-07-13 13:17:08.230 ,3,1,0.,24.0,0.,24.0
1979-07-13 13:17:32.230 ,0,1,0.,24.0,0.,24.0
1979-07-13 13:17:56.230 ,0,0,0.,24.0,0.,24.0
1979-07-13 13:18:20.230 ,0,0,0.,24.0,0.,24.0
1979-07-13 13:18:44.230 ,5,1,0.,24.0,0.,24.0
1979-07-13 13:19:08.230 ,5,0,0.,24.0,0.,24.0
1979-07-13 13:19:32.230 ,4,1,1.,24.0,0.,24.0
1979-07-13 13:19:56.230 ,4,0,0.,24.0,0.,24.0
1979-07-13 13:20:20.230 ,3,1,0.,24.0,0.,24.0
1979-07-13 13:20:44.230 ,3,0,0.,24.0,0.,24.0
1979-07-13 13:21:08.230 ,2,1,0.,24.0,0.,24.0
1979-07-13 13:21:32.230 ,2,0,0.,24.0,0.,24.0
1979-07-13 13:21:56.230 ,1,1,0.,24.0,0.,24.0
1979-07-13 13:22:20.230 ,1,0,0.,24.0,0.,24.0
1979-07-13 13:22:44.230 ,0,1,0.,24.0,0.,24.0
1979-07-13 13:23:08.230 ,0,0,0.,24.0,0.,24.0
1979-07-13 13:23:32.230 ,0,1,0.,24.0,0.,24.0
1979-07-13 13:23:56.230 ,0,0,0.,24.0,0.,24.0
1979-07-13 13:24:20.230 ,1,1,0.,24.0,0.,24.0
1979-07-13 13:24:44.230 ,1,0,0.,24.0,0.,24.0
1979-07-13 13:25:08.230 ,2,1,0.,24.0,0.,24.0
1979-07-13 13:25:32.230 ,2,0,0.,24.0,0.,24.0
1979-07-13 13:25:56.230 ,3,1,0.,24.0,0.,24.0
1979-07-13 13:26:20.230 ,3,0,0.,24.0,0.,24.0
1979-07-13 13:26:44.230 ,4,1,0.,24.0,0.,24.0
1979-07-13 13:27:08.230 ,4,0,0.,24.0,0.,24.0
1979-07-13 13:27:32.230 ,5,1,0.,24.0,0.,24.0
1979-07-13 13:27:56.230 ,5,0,0.,24.0,0.,24.0
1979-07-13 13:28:20.230 ,6,1,0.,24.0,0.,24.0
1979-07-13 13:28:44.230 ,6,0,0.,24.0,0.,24.0
1979-07-13 13:29:08.230 ,7,1,0.,24.0,0.,24.0
1979-07-13 13:29:32.230 ,7,0,0.,24.0,0.,24.0
1979-07-13 13:29:56.230 ,7,1,1.,24.0,0.,24.0
1979-07-13 13:30:20.230 ,7,0,0.,24.0,0.,24.0
1979-07-13 13:30:44.230 ,6,1,0.,24.0,0.,24.0
1979-07-13 13:31:08.230 ,6,0,0.,24.0,0.,24.0
1979-07-13 13:31:32.230 ,5,1,0.,24.0,0.,24.0
1979-07-13 13:31:56.230 ,5,0,0.,24.0,0.,24.0
1979-07-13 13:32:20.230 ,4,1,0.,24.0,0.,24.0
1979-07-13 13:32:44.230 ,4,0,0.,24.0,0.,24.0
1979-07-13 13:33:08.230 ,3,1,0.,24.0,0.,24.0
1979-07-13 13:33:32.230 ,3,0,0.,24.0,0.,24.0
1979-07-13 13:33:56.230 ,2,1,0.,24.0,0.,24.0
1979-07-13 13:34:20.230 ,2,0,0.,24.0,0.,24.0
1979-07-13 13:34:44.230 ,1,1,0.,24.0,0.,24.0
1979-07-13 13:35:08.230 ,1,0,0.,24.0,0.,24.0
1979-07-13 13:35:32.230 ,0,1,0.,24.0,0.,24.0
1979-07-13 13:35:56.230 ,0,0,0.,24.0,0.,24.0
1979-07-13 13:36:20.230 ,0,1,0.,24.0,0.,24.0
1979-07-13 13:36:44.230 ,0,0,1.,24.0,0.,24.0
1979-07-13 13:37:08.230 ,1,1,0.,24.0,0.,24.0
1979-07-13 13:37:32.230 ,1,0,0.,24.0,0.,24.0
1979-07-13 13:37:56.230 ,2,1,0.,24.0,0.,24.0
1979-07-13 13:38:20.230 ,2,0,0.,24.0,0.,24.0
1979-07-13 13:38:44.230 ,3,1,0.,24.0,0.,24.0
1979-07-13 13:39:08.230 ,3,0,0.,24.0,0.,24.0
1979-07-13 13:39:32.230 ,4,1,0.,24.0,0.,24.0
1979-07-13 13:39:56.230 ,4,0,0.,24.0,0.,24.0
1979-07-13 13:40:20.230 ,5,1,0.,24.0,0.,24.0
1979-07-13 13:40:44.230 ,5,0,0.,24.0,0.,24.0
1979-07-13 13:41:08.230 ,6,1,1.,24.0,0.,24.0
1979-07-13 13:41:32.230 ,6,0,0.,24.0,0.,24.0
1979-07-13 13:41:56.230 ,7,1,0.,24.0,0.,24.0
1979-07-13 13:42:20.230 ,7,0,0.,24.0,0.,24.0
1979-07-13 13:42:44.230 ,7,1,0.,24.0,0.,24.0
1979-07-13 13:43:08.230 ,7,0,0.,24.0,0.,24.0
1979-07-13 13:43:32.230 ,6,1,0.,24.0,0.,24.0
1979-07-13 13:43:56.230 ,6,0,0.,24.0,0.,24.0
1979-07-13 13:44:20.230 ,5,1,0.,24.0,0.,24.0
1979-07-13 13:44:44.230 ,5,0,1.,24.0,0.,24.0
1979-07-13 13:45:08.230 ,4,1,0.,24.0,0.,24.0
1979-07-13 13:45:32.230 ,4,0,0.,24.0,0.,24.0
1979-07-13 13:45:56.230 ,3,1,0.,24.0,0.,24.0
1979-07-13 13:46:20.230 ,3,0,0.,24.0,0.,24.0
1979-07-13 13:46:44.230 ,2,1,0.,24.0,0.,24.0
1979-07-13 13:47:08.230 ,2,0,0.,24.0,0.,24.0
1979-07-13 13:47:32.230 ,1,1,0.,24.0,0.,24.0
1979-07-13 13:47:56.230 ,1,0,0.,24.0,0.,24.0
1979-07-13 13:48:20.230 ,0,1,0.,24.0,0.,24.0
1979-07-13 13:48:44.230 ,0,0,0.,24.0,0.,24.0
1979-07-13 13:49:08.230 ,0,1,0.,24.0,0.,24.0
1979-07-13 13:49:32.230 ,0,0,0.,24.0,0.,24.0
1979-07-13 13:49:56.230 ,1,1,0.,24.0,0.,24.0
1979-07-13 13:50:20.230 ,1,0,0.,24.0,0.,24.0
1979-07-13 13:50:44.230 ,2,1,0.,24.0,0.,24.0
1979-07-13 13:51:08.230 ,2,0,0.,24.0,0.,24.0
1979-07-13 13:51:32.230 ,3,1,0.,24.0,0.,24.0
1979-07-13 13:51:56.230 ,3,0,0.,24.0,0.,24.0
1979-07-13 13:52:20.230 ,4,1,0.,24.0,0.,24.0
1979-07-13 13:52:44.230 ,4,0,0.,24.0,0.,24.0
1979-07-13 13:53:08.230 ,5,1,0.,24.0,0.,24.0
1979-07-13 13:53:32.230 ,5,0,0.,24.0,0.,24.0
1979-07-13 13:53:56.230 ,6,1,0.,24.0,0.,24.0
1979-07-13 13:54:20.230 ,6,0,0.,24.0,0.,24.0
1979-07-13 13:54:44.230 ,7,0,0.,24.0,0.,24.0
1979-07-13 13:55:08.230 ,7,0,0.,24.0,0.,24.0
1979-07-13 13:55:32.230 ,3,1,0.,24.0,0.,24.0
1979-07-13 13:55:56.230 ,0,1,0.,24.0,0.,24.0
1979-07-13 13:56:20.230 ,4,1,1.,24.0,0.,24.0
1979-07-13 13:56:44.230 ,7,1,1.,24.0,0.,24.0
1979-07-13 13:57:08.230 ,3,1,0.,24.0,0.,24.0
1979-07-13 13:57:32.230 ,0,1,0.,24.0,0.,24.0
1979-07-13 13:57:56.230 ,4,1,0.,24.0,0.,24.0
1979-07-13 13:58:20.230 ,7,1,0.,24.0,0.,24.0
1979-07-13 13:58:44.230 ,3,1,0.,24.0,0.,24.0
1979-07-13 13:59:08.230 ,0,1,0.,24.0,0.,24.0
1979-07-13 13:59:32.230 ,4,1,1.,24.0,0.,24.0
1979-07-13 13:59:56.230 ,7,1,0.,24.0,0.,24.0
1979-07-13 14:00:20.230 ,3,1,0.,24.0,0.,24.0
1979-07-13 14:00:44.230 ,0,1,0.,24.0,0.,24.0
1979-07-13 14:01:08.230 ,4,1,0.,24.0,0.,24.0
1979-07-13 14:01:32.230 ,7,1,0.,24.0,0.,24.0
1979-07-13 14:01:56.230 ,3,1,0.,24.0,0.,24.0
1979-07-13 14:02:20.230 ,0,1,0.,24.0,0.,24.0
1979-07-13 14:02:44.230 ,4,1,0.,24.0,0.,24.0
1979-07-13 14:03:08.230 ,7,1,0.,24.0,0.,24.0
1979-07-13 14:03:32.230 ,3,1,0.,24.0,0.,24.0
1979-07-13 14:03:56.230 ,0,1,0.,24.0,0.,24.0
1979-07-13 14:04:20.230 ,4,1,0.,24.0,0.,24.0
1979-07-13 14:04:44.230 ,7,1,0.,24.0,0.,24.0
1979-07-13 14:05:08.230 ,3,1,0.,24.0,0.,24.0
1979-07-13 14:05:32.230 ,0,1,0.,24.0,0.,24.0
1979-07-13 14:05:56.230 ,0,0,0.,24.0,0.,24.0
1979-07-13 14:06:20.230 ,0,0,0.,24.0,0.,24.0
1979-07-13 14:06:44.230 ,5,1,0.,24.0,0.,24.0
1979-07-13 14:07:08.230 ,5,0,0.,24.0,0.,24.0
1979-07-13 14:07:32.230 ,4,1,0.,24.0,0.,24.0
1979-07-13 14:07:56.230 ,4,0,1.,24.0,0.,24.0
1979-07-13 14:08:20.230 ,3,1,0.,24.0,0.,24.0
1979-07-13 14:08:44.230 ,3,0,0.,24.0,0.,24.0
1979-07-13 14:09:08.230 ,2,1,0.,24.0,0.,24.0
1979-07-13 14:09:32.230 ,0,0,0.,24.0,0.,24.0
1979-07-13 14:09:56.830 ,1,1,0.,24.0,0.,24.0
1979-07-13 14:10:20.230 ,1,0,0.,24.0,0.,24.0
1979-07-13 14:10:44.230 ,0,1,0.,24.0,0.,24.0
1979-07-13 14:11:08.230 ,0,0,0.,24.0,0.,24.0
1979-07-13 14:11:32.230 ,0,1,0.,24.0,0.,24.0
1979-07-13 14:11:56.230 ,0,0,0.,24.0,0.,24.0
1979-07-13 14:12:20.230 ,1,1,0.,24.0,0.,24.0
1979-07-13 14:12:44.230 ,1,0,0.,24.0,0.,24.0
1979-07-13 14:13:08.230 ,2,1,0.,24.0,0.,24.0
1979-07-13 14:13:32.230 ,0,0,0.,24.0,0.,24.0
1979-07-13 14:13:57.430 ,3,1,0.,24.0,0.,24.0
1979-07-13 14:14:20.230 ,3,0,0.,24.0,0.,24.0
1979-07-13 14:14:44.230 ,4,1,0.,24.0,0.,24.0
1979-07-13 14:15:08.230 ,4,0,0.,24.0,0.,24.0
1979-07-13 14:15:32.230 ,5,1,0.,24.0,0.,24.0
1979-07-13 14:15:56.230 ,5,0,0.,24.0,0.,24.0
1979-07-13 14:16:20.230 ,6,1,0.,24.0,0.,24.0
1979-07-13 14:16:44.230 ,6,0,0.,24.0,0.,24.0
1979-07-13 14:17:08.220 ,7,1,0.,24.0,0.,24.0
1979-07-13 14:17:32.220 ,7,0,0.,24.0,0.,24.0
1979-07-13 14:17:56.220 ,7,1,0.,24.0,0.,24.0
1979-07-13 14:18:20.220 ,7,0,0.,24.0,0.,24.0
1979-07-13 14:18:44.220 ,6,1,0.,24.0,0.,24.0
1979-07-13 14:19:08.220 ,6,0,0.,24.0,0.,24.0
1979-07-13 14:19:32.220 ,5,1,0.,24.0,0.,24.0
1979-07-13 14:19:56.220 ,5,0,0.,24.0,0.,24.0
1979-07-13 14:20:20.220 ,4,1,0.,24.0,0.,24.0
1979-07-13 14:20:44.220 ,4,0,0.,24.0,0.,24.0
1979-07-13 14:21:08.220 ,3,1,0.,24.0,0.,24.0
1979-07-13 14:21:32.220 ,3,0,0.,24.0,0.,24.0
1979-07-13 14:21:56.220 ,2,1,0.,24.0,0.,24.0
1979-07-13 14:22:20.220 ,2,0,0.,24.0,0.,24.0
1979-07-13 14:22:44.220 ,1,1,0.,24.0,0.,24.0
1979-07-13 14:23:08.220 ,1,0,0.,24.0,0.,24.0
1979-07-13 14:23:32.220 ,0,1,1.,24.0,0.,24.0
1979-07-13 14:23:56.220 ,0,0,0.,24.0,0.,24.0
1979-07-13 14:24:20.220 ,0,1,0.,24.0,0.,24.0
1979-07-13 14:24:44.220 ,0,0,0.,24.0,0.,24.0
1979-07-13 14:25:08.220 ,1,1,0.,24.0,0.,24.0
1979-07-13 14:25:32.220 ,1,0,0.,24.0,0.,24.0
1979-07-13 14:25:56.220 ,2,1,0.,24.0,0.,24.0
1979-07-13 14:26:20.220 ,2,0,0.,24.0,0.,24.0
1979-07-13 14:26:44.220 ,3,1,0.,24.0,0.,24.0
1979-07-13 14:27:08.220 ,3,0,0.,24.0,0.,24.0
1979-07-13 14:27:32.220 ,4,1,0.,24.0,0.,24.0
1979-07-13 14:27:56.220 ,4,0,0.,24.0,0.,24.0
1979-07-13 14:28:20.220 ,5,1,0.,24.0,0.,24.0
1979-07-13 14:28:44.220 ,5,0,0.,24.0,0.,24.0
1979-07-13 14:29:08.220 ,6,1,0.,24.0,0.,24.0
1979-07-13 14:29:32.220 ,6,0,0.,24.0,0.,24.0
1979-07-13 14:29:56.220 ,7,1,0.,24.0,0.,24.0
1979-07-13 14:30:20.220 ,7,0,0.,24.0,0.,24.0
1979-07-13 14:30:44.220 ,7,1,0.,24.0,0.,24.0
1979-07-13 14:31:08.220 ,7,0,0.,24.0,0.,24.0
1979-07-13 14:31:32.220 ,6,1,0.,24.0,0.,24.0
1979-07-13 14:31:56.220 ,6,0,0.,24.0,0.,24.0
1979-07-13 14:32:20.220 ,5,1,0.,24.0,0.,24.0
1979-07-13 14:32:44.220 ,5,0,0.,24.0,0.,24.0
1979-07-13 14:33:08.220 ,4,1,0.,24.0,0.,24.0
1979-07-13 14:33:32.220 ,4,0,0.,24.0,0.,24.0
1979-07-13 14:33:56.220 ,3,1,0.,24.0,0.,24.0
1979-07-13 14:34:20.220 ,3,0,1.,24.0,0.,24.0
1979-07-13 14:34:44.220 ,2,1,0.,24.0,0.,24.0
1979-07-13 14:35:08.220 ,2,0,0.,24.0,0.,24.0
1979-07-13 14:35:32.220 ,1,1,0.,24.0,0.,24.0
1979-07-13 14:35:56.220 ,1,0,0.,24.0,0.,24.0
1979-07-13 14:36:20.220 ,0,1,0.,24.0,0.,24.0
1979-07-13 14:36:44.220 ,0,0,0.,24.0,0.,24.0
1979-07-13 14:37:08.220 ,0,1,0.,24.0,0.,24.0
1979-07-13 14:37:32.220 ,0,0,0.,24.0,0.,24.0
1979-07-13 14:37:56.220 ,1,1,0.,24.0,0.,24.0
1979-07-13 14:38:20.220 ,1,0,0.,24.0,0.,24.0
1979-07-13 14:38:44.220 ,2,1,0.,24.0,0.,24.0
1979-07-13 14:39:08.220 ,2,0,0.,24.0,0.,24.0
1979-07-13 14:39:32.220 ,3,1,0.,24.0,0.,24.0
